Time,TemperatureF,DewpointF,PressureIn,WindDirection,WindDirectionDegrees,WindSpeedMPH,WindSpeedGustMPH,Humidity,HourlyPrecipIn,Conditions,Clouds,dailyrainin,SoftwareType,DateUTC
2013-06-17 00:01:00,64.2,59.3,29.73,WSW,248,0.5,2.7,84,0.00,CLR,,0.00,WeatherDisplay:10.37,2013-06-17 04:01:00,
2013-06-17 00:06:00,64.0,59.1,29.74,WSW,248,1.8,2.3,84,0.00,CLR,,0.00,WeatherDisplay:10.37,2013-06-17 04:06:00,
2013-06-17 00:11:00,64.0,59.1,29.74,WNW,292,0.9,2.7,84,0.00,CLR,,0.00,WeatherDisplay:10.37,2013-06-17 04:11:00,
2013-06-17 00:16:00,64.0,59.1,29.74,NNW,338,0.0,2.7,84,0.00,CLR,,0.00,WeatherDisplay:10.37,2013-06-17 04:16:00,
2013-06-17 00:21:00,64.0,59.4,29.74,SSW,202,0.5,2.7,85,0.00,CLR,,0.00,WeatherDisplay:10.37,2013-06-17 04:21:00,
2013-06-17 00:26:00,63.9,59.3,29.74,SW,225,0.9,2.7,85,0.00,CLR,,0.00,WeatherDisplay:10.37,2013-06-17 04:26:00,
2013-06-17 00:31:00,63.9,58.9,29.74,SW,225,0.5,2.7,84,0.00,CLR,,0.00,WeatherDisplay:10.37,2013-06-17 04:31:00,
2013-06-17 00:36:00,63.7,58.8,29.74,SW,225,0.0,2.3,84,0.00,CLR,,0.00,WeatherDisplay:10.37,2013-06-17 04:36:00,
2013-06-17 00:41:00,63.5,58.6,29.74,SW,225,0.0,2.7,84,0.00,CLR,,0.00,WeatherDisplay:10.37,2013-06-17 04:41:00,
2013-06-17 00:46:00,63.3,58.4,29.74,West,270,0.0,2.7,84,0.00,CLR,,0.00,WeatherDisplay:10.37,2013-06-17 04:46:00,
2013-06-17 00:51:00,63.3,58.7,29.74,West,270,0.0,2.7,85,0.00,CLR,,0.00,WeatherDisplay:10.37,2013-06-17 04:51:00,
2013-06-17 00:56:00,63.1,58.6,29.74,West,270,0.0,2.7,85,0.00,CLR,,0.00,WeatherDisplay:10.37,2013-06-17 04:56:00,
2013-06-17 01:01:00,63.0,58.4,29.74,SW,225,0.0,2.7,85,0.00,CLR,,0.00,WeatherDisplay:10.37,2013-06-17 05:01:00,
2013-06-17 01:06:00,63.0,58.4,29.74,NNE,22,0.5,2.7,85,0.00,CLR,,0.00,WeatherDisplay:10.37,2013-06-17 05:06:00,
2013-06-17 01:11:00,63.0,58.4,29.74,SW,225,0.5,2.7,85,0.00,CLR,,0.00,WeatherDisplay:10.37,2013-06-17 05:11:00,
2013-06-17 01:16:00,62.8,58.2,29.74,SW,225,0.0,2.7,85,0.00,CLR,,0.00,WeatherDisplay:10.37,2013-06-17 05:16:00,
2013-06-17 01:21:00,62.6,58.0,29.74,SW,225,0.0,2.7,85,0.00,CLR,,0.00,WeatherDisplay:10.37,2013-06-17 05:21:00,
2013-06-17 01:26:00,62.6,58.4,29.74,SW,225,2.0,2.7,86,0.00,CLR,,0.00,WeatherDisplay:10.37,2013-06-17 05:26:00,
2013-06-17 01:31:00,62.6,58.4,29.75,SW,225,0.0,2.7,86,0.00,CLR,,0.00,WeatherDisplay:10.37,2013-06-17 05:31:00,
2013-06-17 01:36:00,62.4,58.2,29.75,SW,225,0.5,2.3,86,0.00,CLR,,0.00,WeatherDisplay:10.37,2013-06-17 05:36:00,
2013-06-17 01:41:00,62.4,58.2,29.75,SW,225,0.2,2.3,86,0.00,CLR,,0.00,WeatherDisplay:10.37,2013-06-17 05:41:00,
2013-06-17 01:46:00,62.2,58.3,29.75,SW,225,1.1,2.3,87,0.00,CLR,,0.00,WeatherDisplay:10.37,2013-06-17 05:46:00,
2013-06-17 01:51:00,62.2,58.3,29.74,WSW,248,0.7,2.3,87,0.00,CLR,,0.00,WeatherDisplay:10.37,2013-06-17 05:51:00,
2013-06-17 01:56:00,62.2,58.3,29.74,WSW,248,0.5,2.7,87,0.00,CLR,,0.00,WeatherDisplay:10.37,2013-06-17 05:56:00,
2013-06-17 02:01:00,62.2,58.3,29.74,SW,225,1.1,2.7,87,0.00,CLR,,0.00,WeatherDisplay:10.37,2013-06-17 06:01:00,
2013-06-17 02:06:00,62.2,58.3,29.74,WSW,248,0.2,2.7,87,0.00,CLR,,0.00,WeatherDisplay:10.37,2013-06-17 06:06:00,
2013-06-17 02:11:00,62.1,58.1,29.74,SSW,202,0.2,2.7,87,0.00,CLR,,0.00,WeatherDisplay:10.37,2013-06-17 06:11:00,
2013-06-17 02:16:00,62.1,58.1,29.75,SW,225,0.0,2.7,87,0.00,CLR,,0.00,WeatherDisplay:10.37,2013-06-17 06:16:00,
2013-06-17 02:21:00,61.9,58.0,29.75,West,270,0.0,2.7,87,0.00,CLR,,0.00,WeatherDisplay:10.37,2013-06-17 06:21:00,
2013-06-17 02:26:00,61.9,58.0,29.75,NNW,338,0.2,2.7,87,0.00,CLR,,0.00,WeatherDisplay:10.37,2013-06-17 06:26:00,
2013-06-17 02:31:00,61.7,57.8,29.75,NNW,338,0.0,2.7,87,0.00,CLR,,0.00,WeatherDisplay:10.37,2013-06-17 06:31:00,
2013-06-17 02:36:00,61.7,57.8,29.76,NNW,338,0.0,2.7,87,0.00,CLR,,0.00,WeatherDisplay:10.37,2013-06-17 06:36:00,
2013-06-17 02:42:00,61.5,57.6,29.76,NNW,338,0.0,2.7,87,0.00,CLR,,0.00,WeatherDisplay:10.37,2013-06-17 06:42:00,
2013-06-17 02:47:00,61.5,57.6,29.76,NNW,338,0.0,2.7,87,0.00,CLR,,0.00,WeatherDisplay:10.37,2013-06-17 06:47:00,
2013-06-17 02:52:00,61.3,57.4,29.76,North,0,0.0,2.7,87,0.00,CLR,,0.00,WeatherDisplay:10.37,2013-06-17 06:52:00,
2013-06-17 02:57:00,61.2,57.3,29.76,North,0,0.0,2.7,87,0.00,CLR,,0.00,WeatherDisplay:10.37,2013-06-17 06:57:00,
2013-06-17 03:02:00,61.2,57.6,29.76,WNW,292,0.0,2.7,88,0.00,CLR,,0.00,WeatherDisplay:10.37,2013-06-17 07:02:00,
2013-06-17 03:07:00,61.2,57.6,29.76,WNW,292,0.0,2.7,88,0.00,CLR,,0.00,WeatherDisplay:10.37,2013-06-17 07:07:00,
2013-06-17 03:12:00,61.0,57.4,29.76,North,0,0.0,2.7,88,0.00,CLR,,0.00,WeatherDisplay:10.37,2013-06-17 07:12:00,
2013-06-17 03:17:00,60.8,57.2,29.77,North,0,0.0,2.7,88,0.00,CLR,,0.00,WeatherDisplay:10.37,2013-06-17 07:17:00,
2013-06-17 03:22:00,60.8,57.2,29.77,North,0,0.0,2.7,88,0.00,CLR,,0.00,WeatherDisplay:10.37,2013-06-17 07:22:00,
2013-06-17 03:27:00,60.6,57.0,29.77,NNW,338,0.0,2.7,88,0.00,CLR,,0.00,WeatherDisplay:10.37,2013-06-17 07:27:00,
2013-06-17 03:32:00,60.6,57.0,29.77,NNW,338,0.0,2.7,88,0.00,CLR,,0.00,WeatherDisplay:10.37,2013-06-17 07:32:00,
2013-06-17 03:37:00,60.4,56.9,29.76,North,0,0.0,2.7,88,0.00,CLR,,0.00,WeatherDisplay:10.37,2013-06-17 07:37:00,
2013-06-17 03:42:00,60.3,56.7,29.77,North,0,0.0,2.7,88,0.00,CLR,,0.00,WeatherDisplay:10.37,2013-06-17 07:42:00,
2013-06-17 03:47:00,60.1,56.5,29.77,North,0,0.0,2.7,88,0.00,CLR,,0.00,WeatherDisplay:10.37,2013-06-17 07:47:00,
2013-06-17 03:52:00,60.1,56.5,29.77,North,0,0.0,2.3,88,0.00,CLR,,0.00,WeatherDisplay:10.37,2013-06-17 07:52:00,
2013-06-17 03:57:00,59.9,56.3,29.77,North,0,0.0,2.7,88,0.00,CLR,,0.00,WeatherDisplay:10.37,2013-06-17 07:57:00,
2013-06-17 04:02:00,59.7,56.2,29.77,North,0,0.0,2.7,88,0.00,CLR,,0.00,WeatherDisplay:10.37,2013-06-17 08:02:00,
2013-06-17 04:07:00,59.7,56.2,29.77,North,0,0.0,2.7,88,0.00,CLR,,0.00,WeatherDisplay:10.37,2013-06-17 08:07:00,
2013-06-17 04:12:00,59.5,56.0,29.77,North,0,0.0,2.7,88,0.00,CLR,,0.00,WeatherDisplay:10.37,2013-06-17 08:12:00,
2013-06-17 04:17:00,59.4,56.1,29.77,North,0,0.0,2.7,89,0.00,CLR,,0.00,WeatherDisplay:10.37,2013-06-17 08:17:00,
2013-06-17 04:22:00,59.4,56.1,29.77,North,0,0.0,2.7,89,0.00,CLR,,0.00,WeatherDisplay:10.37,2013-06-17 08:22:00,
2013-06-17 04:27:00,59.2,55.9,29.77,North,0,0.0,2.7,89,0.00,CLR,,0.00,WeatherDisplay:10.37,2013-06-17 08:27:00,
2013-06-17 04:32:00,59.0,55.8,29.77,North,0,0.0,2.7,89,0.00,CLR,,0.00,WeatherDisplay:10.37,2013-06-17 08:32:00,
2013-06-17 04:37:00,58.8,55.6,29.77,North,0,0.0,2.7,89,0.00,CLR,,0.00,WeatherDisplay:10.37,2013-06-17 08:37:00,
2013-06-17 04:42:00,58.6,55.4,29.78,North,0,0.0,2.3,89,0.00,CLR,,0.00,WeatherDisplay:10.37,2013-06-17 08:42:00,
2013-06-17 04:47:00,58.5,55.2,29.78,North,0,0.0,2.7,89,0.00,CLR,,0.00,WeatherDisplay:10.37,2013-06-17 08:47:00,
2013-06-17 04:52:00,58.5,55.2,29.78,North,0,0.0,2.7,89,0.00,CLR,,0.00,WeatherDisplay:10.37,2013-06-17 08:52:00,
2013-06-17 04:57:00,58.3,55.1,29.78,North,0,0.0,2.7,89,0.00,CLR,,0.00,WeatherDisplay:10.37,2013-06-17 08:57:00,
2013-06-17 05:02:00,58.1,54.6,29.78,North,0,0.0,2.7,88,0.00,CLR,,0.00,WeatherDisplay:10.37,2013-06-17 09:02:00,
2013-06-17 05:07:00,57.9,54.4,29.78,North,0,0.0,2.7,88,0.00,CLR,,0.00,WeatherDisplay:10.37,2013-06-17 09:07:00,
2013-06-17 05:12:00,57.9,54.4,29.78,WNW,292,0.0,2.3,88,0.00,CLR,,0.00,WeatherDisplay:10.37,2013-06-17 09:12:00,
2013-06-17 05:17:00,57.9,54.4,29.78,WNW,292,0.0,2.7,88,0.00,CLR,,0.00,WeatherDisplay:10.37,2013-06-17 09:17:00,
2013-06-17 05:22:00,57.9,54.4,29.78,WNW,292,0.0,2.3,88,0.00,CLR,,0.00,WeatherDisplay:10.37,2013-06-17 09:22:00,
2013-06-17 05:27:00,57.9,54.4,29.79,WNW,292,0.0,2.3,88,0.00,CLR,,0.00,WeatherDisplay:10.37,2013-06-17 09:27:00,
2013-06-17 05:32:00,57.9,54.4,29.78,WNW,292,0.0,2.3,88,0.00,CLR,,0.00,WeatherDisplay:10.37,2013-06-17 09:32:00,
2013-06-17 05:37:00,57.9,54.4,29.78,WNW,292,0.0,2.3,88,0.00,CLR,,0.00,WeatherDisplay:10.37,2013-06-17 09:37:00,
2013-06-17 05:42:00,57.9,54.4,29.78,WNW,292,0.0,2.3,88,0.00,CLR,,0.00,WeatherDisplay:10.37,2013-06-17 09:42:00,
2013-06-17 05:47:00,57.9,54.4,29.79,WNW,292,0.0,2.7,88,0.00,CLR,,0.00,WeatherDisplay:10.37,2013-06-17 09:47:00,
2013-06-17 05:52:00,57.9,54.4,29.79,WNW,292,0.0,2.7,88,0.00,CLR,,0.00,WeatherDisplay:10.37,2013-06-17 09:52:00,
2013-06-17 05:57:00,58.1,54.6,29.79,WNW,292,0.0,2.7,88,0.00,CLR,,0.00,WeatherDisplay:10.37,2013-06-17 09:57:00,
2013-06-17 06:02:00,58.3,55.1,29.80,WNW,292,0.0,2.7,89,0.00,CLR,,0.00,WeatherDisplay:10.37,2013-06-17 10:02:00,
2013-06-17 06:07:00,58.6,55.7,29.80,WNW,292,0.0,2.7,90,0.00,CLR,,0.00,WeatherDisplay:10.37,2013-06-17 10:07:00,
2013-06-17 06:12:00,59.0,56.1,29.80,WNW,292,0.0,2.7,90,0.00,CLR,,0.00,WeatherDisplay:10.37,2013-06-17 10:12:00,
2013-06-17 06:17:00,59.4,56.4,29.80,WNW,292,0.0,2.7,90,0.00,CLR,,0.00,WeatherDisplay:10.37,2013-06-17 10:17:00,
2013-06-17 06:22:00,59.9,57.0,29.80,WNW,292,0.0,2.7,90,0.00,CLR,,0.00,WeatherDisplay:10.37,2013-06-17 10:22:00,
2013-06-17 06:27:00,60.3,57.3,29.80,WNW,292,0.0,2.7,90,0.00,CLR,,0.00,WeatherDisplay:10.37,2013-06-17 10:27:00,
2013-06-17 06:32:00,60.6,57.7,29.80,WNW,292,0.0,2.7,90,0.00,CLR,,0.00,WeatherDisplay:10.37,2013-06-17 10:32:00,
2013-06-17 06:37:00,60.8,57.8,29.80,WNW,292,0.2,2.7,90,0.00,CLR,,0.00,WeatherDisplay:10.37,2013-06-17 10:37:00,
2013-06-17 06:42:00,61.2,58.2,29.80,WNW,292,0.0,2.7,90,0.00,CLR,,0.00,WeatherDisplay:10.37,2013-06-17 10:42:00,
2013-06-17 06:47:00,61.3,58.4,29.80,WNW,292,0.0,2.7,90,0.00,CLR,,0.00,WeatherDisplay:10.37,2013-06-17 10:47:00,
2013-06-17 06:52:00,61.7,58.7,29.80,WNW,292,0.0,2.7,90,0.00,CLR,,0.00,WeatherDisplay:10.37,2013-06-17 10:52:00,
2013-06-17 06:57:00,61.9,58.9,29.80,WSW,248,0.0,2.7,90,0.00,CLR,,0.00,WeatherDisplay:10.37,2013-06-17 10:57:00,
2013-06-17 07:02:00,62.1,59.1,29.80,WSW,248,0.0,2.7,90,0.00,CLR,,0.00,WeatherDisplay:10.37,2013-06-17 11:02:00,
2013-06-17 07:07:00,62.2,59.3,29.80,WSW,248,0.0,2.7,90,0.00,CLR,,0.00,WeatherDisplay:10.37,2013-06-17 11:07:00,
2013-06-17 07:12:00,62.6,59.6,29.80,SW,225,0.2,2.7,90,0.00,CLR,,0.00,WeatherDisplay:10.37,2013-06-17 11:12:00,
2013-06-17 07:17:00,63.0,59.7,29.81,SW,225,0.0,2.7,89,0.00,CLR,,0.00,WeatherDisplay:10.37,2013-06-17 11:17:00,
2013-06-17 07:22:00,63.1,59.8,29.81,SW,225,0.5,2.3,89,0.00,CLR,,0.00,WeatherDisplay:10.37,2013-06-17 11:22:00,
2013-06-17 07:27:00,63.5,60.5,29.81,SW,225,0.0,2.3,90,0.00,CLR,,0.00,WeatherDisplay:10.37,2013-06-17 11:27:00,
2013-06-17 07:32:00,63.9,60.6,29.81,SW,225,0.0,2.3,89,0.00,CLR,,0.00,WeatherDisplay:10.37,2013-06-17 11:32:00,
2013-06-17 07:37:00,64.2,60.9,29.82,SW,225,0.0,2.7,89,0.00,CLR,,0.00,WeatherDisplay:10.37,2013-06-17 11:37:00,
2013-06-17 07:42:00,64.4,61.1,29.82,SW,225,0.0,2.7,89,0.00,CLR,,0.00,WeatherDisplay:10.37,2013-06-17 11:42:00,
2013-06-17 07:47:00,64.6,61.3,29.82,SW,225,0.0,2.7,89,0.00,CLR,,0.00,WeatherDisplay:10.37,2013-06-17 11:47:00,
2013-06-17 07:52:00,64.8,61.4,29.82,SW,225,0.0,2.7,89,0.00,CLR,,0.00,WeatherDisplay:10.37,2013-06-17 11:52:00,
2013-06-17 07:57:00,65.1,61.8,29.82,SW,225,0.5,2.7,89,0.00,CLR,,0.00,WeatherDisplay:10.37,2013-06-17 11:57:00,
2013-06-17 08:02:00,65.3,62.0,29.82,SW,225,0.0,2.7,89,0.00,CLR,,0.00,WeatherDisplay:10.37,2013-06-17 12:02:00,
2013-06-17 08:07:00,65.8,62.8,29.82,SW,225,0.7,2.7,90,0.00,CLR,,0.00,WeatherDisplay:10.37,2013-06-17 12:07:00,
2013-06-17 08:12:00,66.6,63.5,29.82,WSW,248,0.5,2.7,90,0.00,CLR,,0.00,WeatherDisplay:10.37,2013-06-17 12:12:00,
2013-06-17 08:17:00,67.3,63.9,29.82,WNW,292,0.2,2.7,89,0.00,CLR,,0.00,WeatherDisplay:10.37,2013-06-17 12:17:00,
2013-06-17 08:22:00,68.0,64.3,29.82,SW,225,0.0,2.7,88,0.00,CLR,,0.00,WeatherDisplay:10.37,2013-06-17 12:22:00,
2013-06-17 08:27:00,68.5,64.5,29.82,WSW,248,0.0,2.7,87,0.00,CLR,,0.00,WeatherDisplay:10.37,2013-06-17 12:27:00,
2013-06-17 08:32:00,69.1,64.7,29.82,WNW,292,0.0,2.7,86,0.00,CLR,,0.00,WeatherDisplay:10.37,2013-06-17 12:32:00,
2013-06-17 08:37:00,69.6,64.9,29.82,West,270,0.0,2.7,85,0.00,CLR,,0.00,WeatherDisplay:10.37,2013-06-17 12:37:00,
2013-06-17 08:42:00,70.2,65.4,29.82,WSW,248,1.8,2.7,85,0.00,CLR,,0.00,WeatherDisplay:10.37,2013-06-17 12:42:00,
2013-06-17 08:47:00,70.9,65.8,29.82,SSW,202,1.8,2.7,84,0.00,CLR,,0.00,WeatherDisplay:10.37,2013-06-17 12:47:00,
2013-06-17 08:52:00,71.4,65.6,29.82,SSW,202,1.6,2.7,82,0.00,CLR,,0.00,WeatherDisplay:10.37,2013-06-17 12:52:00,
2013-06-17 08:57:00,71.8,66.0,29.82,West,270,0.5,2.3,82,0.00,CLR,,0.00,WeatherDisplay:10.37,2013-06-17 12:57:00,
2013-06-17 09:02:00,72.0,65.8,29.82,SW,225,1.6,2.3,81,0.00,CLR,,0.00,WeatherDisplay:10.37,2013-06-17 13:02:00,
2013-06-17 09:07:00,72.3,65.4,29.82,SSW,202,1.8,2.3,79,0.00,CLR,,0.00,WeatherDisplay:10.37,2013-06-17 13:07:00,
2013-06-17 09:12:00,72.9,66.3,29.82,SSW,202,1.4,2.7,80,0.00,CLR,,0.00,WeatherDisplay:10.37,2013-06-17 13:12:00,
2013-06-17 09:17:00,73.4,67.2,29.82,WSW,248,1.4,2.7,81,0.00,CLR,,0.00,WeatherDisplay:10.37,2013-06-17 13:17:00,
2013-06-17 09:22:00,74.1,66.8,29.82,NNW,338,0.7,2.7,78,0.00,CLR,,0.00,WeatherDisplay:10.37,2013-06-17 13:22:00,
2013-06-17 09:27:00,74.5,67.2,29.82,West,270,0.7,2.7,78,0.00,CLR,,0.00,WeatherDisplay:10.37,2013-06-17 13:27:00,
2013-06-17 09:32:00,75.0,66.6,29.81,SW,225,1.4,2.7,75,0.00,CLR,,0.00,WeatherDisplay:10.37,2013-06-17 13:32:00,
2013-06-17 09:37:00,75.7,66.1,29.81,SSW,202,2.0,2.7,72,0.00,CLR,,0.00,WeatherDisplay:10.37,2013-06-17 13:37:00,
2013-06-17 15:32:00,83.7,65.3,29.79,WSW,248,3.3,3.3,54,0.00,CLR,,0.00,WeatherDisplay:10.37,2013-06-17 19:32:00,
2013-06-17 15:37:00,83.5,65.6,29.79,SSW,202,7.8,18.4,55,0.00,CLR,,0.00,WeatherDisplay:10.37,2013-06-17 19:37:00,
2013-06-17 15:42:00,83.5,66.6,29.79,WSW,248,4.0,18.4,57,0.00,CLR,,0.00,WeatherDisplay:10.37,2013-06-17 19:42:00,
2013-06-17 15:47:00,83.8,65.9,29.79,SSW,202,1.8,18.4,55,0.00,CLR,,0.00,WeatherDisplay:10.37,2013-06-17 19:47:00,
2013-06-17 15:52:00,83.3,65.4,29.79,WSW,248,1.8,18.4,55,0.00,CLR,,0.00,WeatherDisplay:10.37,2013-06-17 19:52:00,
2013-06-17 15:57:00,82.8,64.9,29.78,SSW,202,5.2,18.4,55,0.00,CLR,,0.00,WeatherDisplay:10.37,2013-06-17 19:57:00,
2013-06-17 16:02:00,82.4,65.1,29.78,SW,225,8.5,18.4,56,0.00,CLR,,0.00,WeatherDisplay:10.37,2013-06-17 20:02:00,
2013-06-17 16:07:00,82.4,65.6,29.78,West,270,10.2,18.4,57,0.00,CLR,,0.00,WeatherDisplay:10.37,2013-06-17 20:07:00,
2013-06-17 16:12:00,82.4,65.1,29.78,SW,225,1.8,18.4,56,0.00,CLR,,0.00,WeatherDisplay:10.37,2013-06-17 20:12:00,
2013-06-17 16:17:00,82.2,65.5,29.78,West,270,2.4,18.4,57,0.00,CLR,,0.00,WeatherDisplay:10.37,2013-06-17 20:17:00,
2013-06-17 16:22:00,82.0,65.8,29.78,SSW,202,2.9,18.4,58,0.00,CLR,,0.00,WeatherDisplay:10.37,2013-06-17 20:22:00,
2013-06-17 16:27:00,82.4,66.6,29.78,SSE,158,4.0,18.4,59,0.00,CLR,,0.00,WeatherDisplay:10.37,2013-06-17 20:27:00,
2013-06-17 16:32:00,83.5,68.1,29.78,SSW,202,3.1,18.4,60,0.00,CLR,,0.00,WeatherDisplay:10.37,2013-06-17 20:32:00,
2013-06-17 16:37:00,84.6,67.6,29.78,South,180,2.0,18.4,57,0.00,CLR,,0.00,WeatherDisplay:10.37,2013-06-17 20:37:00,
2013-06-17 16:42:00,85.3,68.3,29.78,SSW,202,6.4,6.9,57,0.00,CLR,,0.00,WeatherDisplay:10.37,2013-06-17 20:42:00,
2013-06-17 16:47:00,86.4,67.8,29.78,SSE,158,4.0,5.8,54,0.00,CLR,,0.00,WeatherDisplay:10.37,2013-06-17 20:47:00,
2013-06-17 16:52:00,86.2,67.6,29.78,SSW,202,5.9,6.9,54,0.00,CLR,,0.00,WeatherDisplay:10.37,2013-06-17 20:52:00,
2013-06-17 16:57:00,86.0,66.9,29.77,SSW,202,10.5,10.5,53,0.00,CLR,,0.00,WeatherDisplay:10.37,2013-06-17 20:57:00,
2013-06-17 17:02:00,85.6,67.1,29.78,SW,225,6.0,8.1,54,0.00,CLR,,0.00,WeatherDisplay:10.37,2013-06-17 21:02:00,
2013-06-17 17:07:00,86.0,66.9,29.78,SSE,158,4.5,8.1,53,0.00,CLR,,0.00,WeatherDisplay:10.37,2013-06-17 21:07:00,
2013-06-17 17:12:00,85.1,66.6,29.78,SSW,202,2.4,3.5,54,0.00,CLR,,0.00,WeatherDisplay:10.37,2013-06-17 21:12:00,
2013-06-17 17:17:00,82.8,65.5,29.78,SW,225,4.0,9.2,56,0.00,CLR,,0.00,WeatherDisplay:10.37,2013-06-17 21:17:00,
2013-06-17 17:22:00,80.8,65.1,29.78,SSE,158,4.7,9.2,59,0.00,CLR,,0.00,WeatherDisplay:10.37,2013-06-17 21:22:00,
2013-06-17 17:27:00,79.3,65.2,29.78,South,180,3.8,8.1,62,0.00,CLR,,0.00,WeatherDisplay:10.37,2013-06-17 21:27:00,
2013-06-17 17:32:00,78.1,65.4,29.77,SSW,202,2.4,4.6,65,0.00,CLR,,0.00,WeatherDisplay:10.37,2013-06-17 21:32:00,
2013-06-17 17:37:00,77.5,64.8,29.77,SW,225,6.2,8.1,65,0.00,CLR,,0.00,WeatherDisplay:10.37,2013-06-17 21:37:00,
2013-06-17 17:42:00,76.5,64.3,29.77,SSE,158,5.4,5.8,66,0.00,CLR,,0.00,WeatherDisplay:10.37,2013-06-17 21:42:00,
2013-06-17 17:47:00,75.2,63.9,29.78,SW,225,9.2,9.2,68,0.00,CLR,,0.00,WeatherDisplay:10.37,2013-06-17 21:47:00,
2013-06-17 17:52:00,74.1,62.9,29.78,SSW,202,5.6,8.1,68,0.00,CLR,,0.00,WeatherDisplay:10.37,2013-06-17 21:52:00,
2013-06-17 17:57:00,73.4,63.0,29.78,SW,225,4.7,6.9,70,0.00,CLR,,0.00,WeatherDisplay:10.37,2013-06-17 21:57:00,
2013-06-17 18:02:00,72.7,63.1,29.77,SSW,202,7.1,10.4,72,0.00,CLR,,0.00,WeatherDisplay:10.37,2013-06-17 22:02:00,
2013-06-17 18:07:00,72.3,63.2,29.77,SSW,202,7.8,9.2,73,0.00,CLR,,0.00,WeatherDisplay:10.37,2013-06-17 22:07:00,
2013-06-17 18:12:00,72.1,63.0,29.77,SSW,202,5.4,5.4,73,0.00,CLR,,0.00,WeatherDisplay:10.37,2013-06-17 22:12:00,
2013-06-17 18:17:00,72.0,63.2,29.77,SSW,202,5.4,8.1,74,0.00,CLR,,0.00,WeatherDisplay:10.37,2013-06-17 22:17:00,
2013-06-17 18:22:00,72.0,63.2,29.77,SSW,202,6.2,6.2,74,0.00,CLR,,0.00,WeatherDisplay:10.37,2013-06-17 22:22:00,
2013-06-17 18:27:00,72.1,63.0,29.78,West,270,1.4,5.8,73,0.00,CLR,,0.00,WeatherDisplay:10.37,2013-06-17 22:27:00,
2013-06-17 18:32:00,72.3,63.6,29.78,SSW,202,0.9,2.3,74,0.00,CLR,,0.00,WeatherDisplay:10.37,2013-06-17 22:32:00,
2013-06-17 18:37:00,72.7,63.9,29.79,WSW,248,3.3,3.3,74,0.00,CLR,,0.00,WeatherDisplay:10.37,2013-06-17 22:37:00,
2013-06-17 18:42:00,73.0,63.9,29.80,WSW,248,2.0,2.3,73,0.00,CLR,,0.00,WeatherDisplay:10.37,2013-06-17 22:42:00,
2013-06-17 18:47:00,72.9,64.1,29.80,SSW,202,1.1,3.5,74,0.00,CLR,,0.00,WeatherDisplay:10.37,2013-06-17 22:47:00,
2013-06-17 18:52:00,72.7,63.9,29.81,SSW,202,1.4,2.3,74,0.00,CLR,,0.00,WeatherDisplay:10.37,2013-06-17 22:52:00,
2013-06-17 18:57:00,72.3,63.9,29.81,SW,225,1.8,2.3,75,0.00,CLR,,0.00,WeatherDisplay:10.37,2013-06-17 22:57:00,
2013-06-17 19:02:00,72.1,63.4,29.82,West,270,4.0,5.8,74,0.00,CLR,,0.00,WeatherDisplay:10.37,2013-06-17 23:02:00,
2013-06-17 19:07:00,71.8,63.0,29.82,WSW,248,0.5,5.8,74,0.00,CLR,,0.00,WeatherDisplay:10.37,2013-06-17 23:07:00,
2013-06-17 19:12:00,71.6,62.9,29.82,SW,225,1.8,4.6,74,0.00,CLR,,0.00,WeatherDisplay:10.37,2013-06-17 23:12:00,
2013-06-17 19:17:00,71.4,62.7,29.82,West,270,0.7,3.5,74,0.00,CLR,,0.00,WeatherDisplay:10.37,2013-06-17 23:17:00,
2013-06-17 19:22:00,71.2,62.5,29.84,North,0,0.7,1.1,74,0.00,CLR,,0.00,WeatherDisplay:10.37,2013-06-17 23:22:00,
2013-06-17 19:27:00,71.1,63.1,29.86,WSW,248,2.4,4.6,76,0.00,CLR,,0.00,WeatherDisplay:10.37,2013-06-17 23:27:00,
2013-06-17 19:32:00,70.7,62.0,29.87,West,270,1.6,2.3,74,0.00,CLR,,0.00,WeatherDisplay:10.37,2013-06-17 23:32:00,
2013-06-17 19:37:00,70.2,60.7,29.87,NW,315,4.9,5.8,72,0.00,CLR,,0.00,WeatherDisplay:10.37,2013-06-17 23:37:00,
2013-06-17 19:42:00,69.4,60.4,29.87,North,0,4.7,4.7,73,0.00,CLR,,0.00,WeatherDisplay:10.37,2013-06-17 23:42:00,
2013-06-17 19:47:00,68.9,59.9,29.87,NNW,338,3.6,8.1,73,0.00,CLR,,0.00,WeatherDisplay:10.37,2013-06-17 23:47:00,
2013-06-17 19:52:00,68.4,59.4,29.87,NW,315,2.0,5.8,73,0.00,CLR,,0.00,WeatherDisplay:10.37,2013-06-17 23:52:00,
2013-06-17 19:57:00,67.8,59.2,29.87,West,270,2.4,4.6,74,0.00,CLR,,0.00,WeatherDisplay:10.37,2013-06-17 23:57:00,
2013-06-17 20:02:00,67.5,58.9,29.87,WNW,292,1.1,3.5,74,0.00,CLR,,0.00,WeatherDisplay:10.37,2013-06-18 00:02:00,
2013-06-17 20:07:00,66.9,58.7,29.87,North,0,0.9,2.3,75,0.00,CLR,,0.00,WeatherDisplay:10.37,2013-06-18 00:07:00,
2013-06-17 20:12:00,66.6,59.1,29.87,NNW,338,4.3,4.3,77,0.00,CLR,,0.00,WeatherDisplay:10.37,2013-06-18 00:12:00,
2013-06-17 20:17:00,66.2,58.4,29.87,NNE,22,1.1,1.1,76,0.00,CLR,,0.00,WeatherDisplay:10.37,2013-06-18 00:17:00,
2013-06-17 20:22:00,66.0,58.2,29.87,SSE,158,1.1,1.1,76,0.00,CLR,,0.00,WeatherDisplay:10.37,2013-06-18 00:22:00,
2013-06-17 20:27:00,65.8,58.1,29.87,North,0,1.1,1.1,76,0.00,CLR,,0.00,WeatherDisplay:10.37,2013-06-18 00:27:00,
2013-06-17 20:32:00,65.7,58.3,29.87,North,0,0.7,1.1,77,0.00,CLR,,0.00,WeatherDisplay:10.37,2013-06-18 00:32:00,
2013-06-17 20:37:00,65.3,57.9,29.87,West,270,2.0,2.3,77,0.00,CLR,,0.00,WeatherDisplay:10.37,2013-06-18 00:37:00,
2013-06-17 20:42:00,65.1,58.1,29.86,ENE,68,2.2,2.2,78,0.00,CLR,,0.00,WeatherDisplay:10.37,2013-06-18 00:42:00,
2013-06-17 20:47:00,65.1,57.7,29.86,NNE,22,0.7,1.1,77,0.00,CLR,,0.00,WeatherDisplay:10.37,2013-06-18 00:47:00,
2013-06-17 20:52:00,64.8,57.4,29.86,NNE,22,0.0,0.0,77,0.00,CLR,,0.00,WeatherDisplay:10.37,2013-06-18 00:52:00,
2013-06-17 20:57:00,64.8,57.7,29.87,NNE,22,0.0,0.0,78,0.00,CLR,,0.00,WeatherDisplay:10.37,2013-06-18 00:57:00,
2013-06-17 21:02:00,64.6,57.6,29.87,NNE,22,0.0,0.0,78,0.00,CLR,,0.00,WeatherDisplay:10.37,2013-06-18 01:02:00,
2013-06-17 21:07:00,64.6,57.6,29.87,NNE,22,0.0,0.0,78,0.00,CLR,,0.00,WeatherDisplay:10.37,2013-06-18 01:07:00,
2013-06-17 21:12:00,64.6,57.6,29.86,NNE,22,0.0,0.0,78,0.00,CLR,,0.00,WeatherDisplay:10.37,2013-06-18 01:12:00,
2013-06-17 21:17:00,64.4,57.7,29.86,NNE,22,0.0,0.0,79,0.00,CLR,,0.00,WeatherDisplay:10.37,2013-06-18 01:17:00,
2013-06-17 21:22:00,64.4,57.7,29.86,NNE,22,0.0,0.0,79,0.00,CLR,,0.00,WeatherDisplay:10.37,2013-06-18 01:22:00,
2013-06-17 21:27:00,64.4,57.7,29.86,SE,135,0.5,0.5,79,0.00,CLR,,0.00,WeatherDisplay:10.37,2013-06-18 01:27:00,
2013-06-17 21:32:00,64.4,57.7,29.86,SE,135,0.5,0.5,79,0.00,CLR,,0.00,WeatherDisplay:10.37,2013-06-18 01:32:00,
2013-06-17 21:37:00,64.4,57.7,29.86,SE,135,0.5,0.5,79,0.00,CLR,,0.00,WeatherDisplay:10.37,2013-06-18 01:37:00,
2013-06-17 21:42:00,64.4,57.7,29.86,SE,135,0.5,0.5,79,0.00,CLR,,0.00,WeatherDisplay:10.37,2013-06-18 01:42:00,
2013-06-17 21:47:00,64.4,57.7,29.86,SE,135,0.5,0.5,79,0.00,CLR,,0.00,WeatherDisplay:10.37,2013-06-18 01:47:00,
2013-06-17 21:52:00,64.4,58.1,29.86,SE,135,0.5,0.5,80,0.00,CLR,,0.00,WeatherDisplay:10.37,2013-06-18 01:52:00,
2013-06-17 21:57:00,64.2,57.9,29.85,SE,135,0.5,0.5,80,0.00,CLR,,0.00,WeatherDisplay:10.37,2013-06-18 01:57:00,
2013-06-17 22:02:00,64.0,57.7,29.86,SE,135,0.5,0.5,80,0.00,CLR,,0.00,WeatherDisplay:10.37,2013-06-18 02:02:00,
2013-06-17 22:07:00,63.7,57.4,29.86,SE,135,0.5,0.0,80,0.00,CLR,,0.00,WeatherDisplay:10.37,2013-06-18 02:07:00,
2013-06-17 22:12:00,63.7,57.7,29.85,SE,135,0.5,0.5,81,0.00,CLR,,0.00,WeatherDisplay:10.37,2013-06-18 02:12:00,
2013-06-17 22:17:00,63.5,57.6,29.85,SE,135,0.5,0.5,81,0.00,CLR,,0.00,WeatherDisplay:10.37,2013-06-18 02:17:00,
2013-06-17 22:22:00,63.5,57.9,29.85,SE,135,0.5,0.5,82,0.00,CLR,,0.00,WeatherDisplay:10.37,2013-06-18 02:22:00,
2013-06-17 22:27:00,63.3,57.7,29.85,SE,135,0.5,0.5,82,0.00,CLR,,0.00,WeatherDisplay:10.37,2013-06-18 02:27:00,
2013-06-17 22:32:00,63.1,57.9,29.85,SE,135,0.5,0.5,83,0.00,CLR,,0.00,WeatherDisplay:10.37,2013-06-18 02:32:00,
2013-06-17 22:37:00,63.1,57.9,29.85,SE,135,0.5,0.5,83,0.00,CLR,,0.00,WeatherDisplay:10.37,2013-06-18 02:37:00,
2013-06-17 22:42:00,63.1,57.9,29.85,SE,135,0.5,0.5,83,0.00,CLR,,0.00,WeatherDisplay:10.37,2013-06-18 02:42:00,
2013-06-17 22:47:00,63.1,57.9,29.86,WSW,248,0.0,0.0,83,0.00,CLR,,0.00,WeatherDisplay:10.37,2013-06-18 02:47:00,
2013-06-17 22:52:00,63.1,57.9,29.85,SSW,202,0.5,1.1,83,0.00,CLR,,0.00,WeatherDisplay:10.37,2013-06-18 02:52:00,
2013-06-17 22:57:00,63.1,57.9,29.85,SSW,202,0.7,0.0,83,0.00,CLR,,0.00,WeatherDisplay:10.37,2013-06-18 02:57:00,
2013-06-17 23:02:00,63.1,57.9,29.85,SSW,202,1.1,1.1,83,0.00,CLR,,0.00,WeatherDisplay:10.37,2013-06-18 03:02:00,
2013-06-17 23:07:00,63.1,57.9,29.85,SSW,202,0.0,0.0,83,0.00,CLR,,0.00,WeatherDisplay:10.37,2013-06-18 03:07:00,
2013-06-17 23:12:00,63.1,57.9,29.86,SW,225,0.5,1.1,83,0.00,CLR,,0.00,WeatherDisplay:10.37,2013-06-18 03:12:00,
2013-06-17 23:17:00,63.1,57.9,29.86,SW,225,0.0,0.0,83,0.00,CLR,,0.00,WeatherDisplay:10.37,2013-06-18 03:17:00,
2013-06-17 23:22:00,63.0,57.7,29.85,SSW,202,0.0,0.0,83,0.00,CLR,,0.00,WeatherDisplay:10.37,2013-06-18 03:22:00,
2013-06-17 23:27:00,63.0,57.7,29.85,South,180,0.5,0.5,83,0.00,CLR,,0.00,WeatherDisplay:10.37,2013-06-18 03:27:00,
2013-06-17 23:32:00,63.0,58.0,29.86,SW,225,0.9,1.1,84,0.00,CLR,,0.00,WeatherDisplay:10.37,2013-06-18 03:32:00,
2013-06-17 23:37:00,63.0,58.0,29.86,SSW,202,0.2,2.3,84,0.00,CLR,,0.00,WeatherDisplay:10.37,2013-06-18 03:37:00,
2013-06-17 23:42:00,63.0,58.0,29.85,SSW,202,0.5,0.0,84,0.00,CLR,,0.00,WeatherDisplay:10.37,2013-06-18 03:42:00,
2013-06-17 23:47:00,63.0,58.0,29.85,SW,225,0.9,1.1,84,0.00,CLR,,0.00,WeatherDisplay:10.37,2013-06-18 03:47:00,
2013-06-17 23:53:00,62.8,57.9,29.85,SSW,202,0.9,1.1,84,0.00,CLR,,0.00,WeatherDisplay:10.37,2013-06-18 03:53:00,
2013-06-17 23:58:00,62.6,57.7,29.85,SSW,202,0.9,1.1,84,0.00,CLR,,0.00,WeatherDisplay:10.37,2013-06-18 03:58:00,